Preview of NWS' New Version of Forecast
This preview is not operational and should not be used for support decisions.

Regional Weather Roundup (RWR)

Issued by National Weather Service (NWS)

                            
000
ASUS45 KBOU 190710
RWRCO 

WEATHER ROUNDUP FOR COLORADO
NATIONAL WEATHER SERVICE DENVER/BOULDER CO
100 AM MDT TUE MAR 19 2019

NOTE: "FAIR" INDICATES FEW OR NO CLOUDS BELOW 12000 FEET WITH NO
SIGNIFICANT WEATHER AND/OR OBSTRUCTIONS TO VISIBILITY.

COZ001>005-013-030-031-190800-
...NORTHWEST COLORADO...
  
CITY           SKY/WX    TMP DP  RH WIND       PRES   REMARKS
CRAIG          FAIR      19  15  84 CALM      30.22S                  
HAYDEN         FAIR      24  20  84 S5        30.22F WCI  18          
MEEKER         FAIR      25  22  88 CALM      30.20S                  
RANGELY        FAIR      33  26  75 E10       30.21S WCI  24          
RABBIT EARS PA FAIR      16  16 100 W7        30.17S WCI   6          
STEAMBOAT SPGS FAIR      23  19  84 CALM      30.20S                  
WALDEN         FAIR      18  12  79 CALM      30.21S                  
$$

COZ006>008-011-190800-
...WEST CENTRAL VALLEYS...
  
CITY           SKY/WX    TMP DP  RH WIND       PRES   REMARKS
GRAND JUNCTION FAIR      40  29  64 CALM      30.13R                  
MONTROSE       FAIR      37  27  67 SE8       30.15F                  
EAGLE          CLOUDY    34  25  69 CALM      30.18F                  
RIFLE          CLOUDY    43  23  45 NW8       30.15F                  
DELTA          FAIR      41  29  63 N3        30.13S                  
NUCLA          FAIR      37  28  70 E9        30.17S                  
$$

COZ017>023-064>068-190800-
...SOUTHWEST COLORADO...
  
CITY           SKY/WX    TMP DP  RH WIND       PRES   REMARKS
DURANGO        FAIR      36  26  67 CALM      30.14F                  
CORTEZ         FAIR      34  27  75 NE5       30.14S WCI  30          
PAGOSA SPRINGS FAIR      32  23  70 CALM      30.17S                  
TELLURIDE      MOCLDY    32  27  80 SE5       30.22F WCI  27          
WOLF CREEK PAS FAIR      21  18  86 SW10G17   30.27F WCI  10          
$$

COZ009-010-012-014-032>034-037-058>063-190800-
...CENTRAL COLORADO...
  
CITY           SKY/WX    TMP DP  RH WIND       PRES   REMARKS
ASPEN          CLOUDY    32  25  75 S5        30.15F WCI  27          
BUENA VISTA    CLOUDY    33  24  67 NW5       30.15S WCI  29          
COPPER MTN     FLURRIES  23  18  80 W8        30.18F WCI  14          
BERTHOUD PASS  CLOUDY    12   1  62 NW12G18   30.15F WCI  -2          
COTTONWOOD PAS FAIR      32  21  64 NW5       30.16F WCI  27          
GUNNISON       FAIR      22  19  89 NE8       30.19F WCI  12          
GRANBY         FAIR      29  16  58 SW5       30.17F WCI  23          
KREMMLING      CLOUDY    30  27  86 CALM      30.19F                  
LEADVILLE      CLOUDY    22  20  92 E5        30.15F WCI  16          
MONARCH PASS   FOG       21  19  93 W23       30.28F VSB<1/4 WCI   5  
SALIDA         CLOUDY    41  26  55 W5        30.20F                  
SUNLIGHT       CLOUDY    21  14  73 W8        30.24S WCI  12          
WILKERSON PASS LGT SNOW  23  18  80 CALM      30.20F                  
$$

COZ069>075-190800-
...SAN LUIS VALLEY/SANGRE DE CRISTO MOUNTAINS...
  
CITY           SKY/WX    TMP DP  RH WIND       PRES   REMARKS
ALAMOSA        CLOUDY    30  24  78 SW3       30.15F                  
DEL NORTE      CLOUDY    30  24  77 W10       30.16F WCI  21          
LA VETA PASS   NOT AVBL                                               
SAGUACHE       FAIR      32  27  80 CALM      30.16F                  
$$

COZ035-036-038>040-190800-
...NORTHERN COLORADO FRONT RANGE...
  
CITY           SKY/WX    TMP DP  RH WIND       PRES   REMARKS
DENVER INTL AP CLOUDY    35  30  82 N5        30.17F WCI  31          
AURORA         PTCLDY    33  31  94 N3        30.18F                  
FRONT RANGE AP CLOUDY    37  32  84 N6        30.18F                  
ERIE MUNI ARPT MOCLDY    35  27  72 CALM      30.24S                  
BOULDER MUN AP CLOUDY    37  28  70 CALM      30.18S                  
CENTENNIAL     CLOUDY    35  29  78 NE3       30.18S                  
BROOMFIELD     MOCLDY    36  27  69 N5        30.19S                  
FORT COLLINS   CLOUDY    38  23  55 N8        30.18F                  
LONGMONT       CLOUDY    41  23  49 CALM      30.20F                  
$$

COZ041-046-047-076>085-087-088-190800-
...PIKES PEAK/PALMER DIVIDE AND SOUTHERN FOOTHILLS...
  
CITY           SKY/WX    TMP DP  RH WIND       PRES   REMARKS
COLO. SPRINGS  MOCLDY    39  25  57 NW17G26   30.13S                  
A. F. ACADEMY  CLOUDY    36  26  67 N18       30.13S                  
SCHRIEVER AFB  NOT AVBL                                               
CHEYENNE MTN   MOCLDY    38  27  65 NW15G23   30.08S                  
ELLICOTT         N/A    N/A N/A N/A N22G29    30.11S                  
FALCON         CLOUDY    35  25  67 N18G26    30.13F WCI  24          
FORT CARSON    CLOUDY    42  27  55 N20G26    30.11S                  
LIMON          CLOUDY    36  33  89 N12       30.12S                  
MONUMENT HILL  CLOUDY    32  27  80 MISG      30.18S                  
CANON CITY     NOT AVBL                                               
WALSENBURG     NOT AVBL                                               
TRINIDAD       FAIR      41  28  60 N12       30.10R                  
$$

COZ042>045-048>051-090-091-190800-
...NORTHEAST COLORADO...
  
CITY           SKY/WX    TMP DP  RH WIND       PRES   REMARKS
GREELEY ARPT   CLOUDY    37  27  67 N8        30.18                   
AKRON          CLOUDY    36  31  82 N10       30.15F                  
BURLINGTON     CLOUDY    38  31  76 E15       30.10F                  
WRAY           CLOUDY    41  32  70 S10       30.12S                  
YUMA           LGT RAIN  36  32  87 NW12      30.15R                  
STERLING       FAIR      34  32  93 N6        30.15F WCI  29          
HOLYOKE        FAIR      34  32  93 N5        30.16F WCI  30          
FORT MORGAN      N/A     37  27  69 NW3       30.17F                  
$$

COZ086-089-092>099-190800-
...SOUTHEAST COLORADO...
  
CITY           SKY/WX    TMP DP  RH WIND       PRES   REMARKS
PUEBLO         FAIR      46  30  53 N17       30.09R                  
LA JUNTA       FAIR      41  32  70 NW14      30.06R                  
LAMAR          FAIR      47  25  42 SW14      29.98F                  
SPRINGFIELD    NOT AVBL                                               
$$